This demonstration page uses our WeatherBlox Daily Observations layout. Learn more.

Left ArrowRight Arrow

Hourly Observations for April 2, 2019

Temp ( °F °C ) Dew Point ( °F °C ) Humidity (%) Winds ( mph kmh ) Pressure ( in mb ) Visibility ( mi km ) Precip ( " mm )
12:52 am 00:52 Cloudy with Light Rain 41 5 33 0.6 73 73 NNE 15 24 30.02 1017 10 16 0.00 0.03
1:32 am 01:32 Cloudy with Rain 40 4.4 32 0 73 73 N 17 28 30.07 1018 5 8 0.02 0.51
1:52 am 01:52 Cloudy with Rain 37 2.8 33 0.6 86 86 NNW 16 26 30.06 1018 4 6 0.07 1.78
2:16 am 02:16 Cloudy with Mist and Fog 37 2.8 33 0.6 86 86 N 12 19 30.09 1019 6 10 0.01 0.25
2:33 am 02:33 Cloudy with Mist and Fog 37 2.8 33 0.6 86 86 N 10 17 30.08 1019 6 10 0.01 0.25
2:52 am 02:52 Cloudy with Mist and Fog 37 2.8 33 0.6 86 86 NNW 13 20 30.05 1018 6 10 0.01 0.25
3:52 am 03:52 Cloudy with Mist and Fog 37 2.8 33 0.6 86 86 NNW 10 17 30.05 1018 6 10 0.00 0.03
4:52 am 04:52 Cloudy 37 2.8 33 0.6 86 86 NNW 13 20 30.06 1018 7 11 0.00 0.00
5:52 am 05:52 Cloudy 36 2.2 31 -0.6 82 82 N 15 24 30.06 1018 10 16 0.00 0.00
6:52 am 06:52 Cloudy 35 1.7 30 -1.1 82 82 NW 16 26 30.08 1019 10 16 0.00 0.00
7:52 am 07:52 Cloudy 35 1.7 29 -1.7 78 78 NNW 15 24 30.09 1019 10 16 0.00 0.00
8:52 am 08:52 Cloudy 36 2.2 30 -1.1 79 79 NW 10 17 30.11 1020 10 16 0.00 0.00
9:52 am 09:52 Mostly Cloudy 37 2.8 29 -1.7 73 73 W 12 19 30.13 1020 10 16 0.00 0.00
10:52 am 10:52 Mostly Cloudy 38 3.3 29 -1.7 70 70 WNW 7 11 30.14 1021 10 16 0.00 0.00
11:05 am 11:05 Partly Cloudy 40 4.4 30 -1.1 68 68 NNW 7 11 30.16 1021 10 16 0.00 0.00
11:52 am 11:52 Partly Cloudy 43 6.1 30 -1.1 60 60 VRB 5 7 30.14 1021 10 16 0.00 0.00
12:52 pm 12:52 Partly Cloudy 49 9.4 32 0 52 52 W 8 13 30.13 1020 10 16 0.00 0.00
1:52 pm 13:52 Partly Cloudy 52 11.1 32 0 47 47 NW 8 13 30.11 1020 10 16 0.00 0.00
2:52 pm 14:52 Mostly Sunny 55 12.8 31 -0.6 40 40 W 14 22 30.09 1019 10 16 0.00 0.00
3:52 pm 15:52 Partly Cloudy 57 13.9 31 -0.6 37 37 NNW 9 15 30.07 1018 10 16 0.00 0.00
4:52 pm 16:52 Partly Cloudy 57 13.9 32 0 39 39 WNW 12 19 30.06 1018 10 16 0.00 0.00
5:52 pm 17:52 Partly Cloudy 59 15 33 0.6 38 38 VRB 3 6 30.05 1018 10 16 0.00 0.00
6:52 pm 18:52 Partly Cloudy 57 13.9 31 -0.6 37 37 W 7 11 30.05 1018 10 16 0.00 0.00
7:52 pm 19:52 Mostly Clear 56 13.3 31 -0.6 39 39 WSW 3 6 30.06 1018 10 16 0.00 0.00
8:52 pm 20:52 Clear 53 11.7 32 0 45 45 S 6 9 30.07 1018 10 16 0.00 0.00
9:52 pm 21:52 Clear 48 8.9 33 0.6 56 56 SE 7 11 30.11 1020 10 16 0.00 0.00
10:52 pm 22:52 Clear 44 6.7 33 0.6 65 65 SSE 7 11 30.11 1020 10 16 0.00 0.00
11:52 pm 23:52 Clear 46 7.8 34 1.1 63 63 SSE 7 11 30.12 1020 10 16 0.00 0.00

Powered by AerisWeather